{"data":{"norad_id":66685,"epoch":"2026-09-20T22:48:50.495616Z","epoch_age_seconds":82011,"freshness":"FRESH","line1":"1 66685U 25276V   26263.95058444  .00010406  00000+0  42069-3 0  9995","line2":"2 66685  97.4138 336.9292 0005044  52.6160 307.5537 15.24909596 45034","mean_motion":15.24909596,"eccentricity":0.0005044,"inclination_deg":97.4138,"raan_deg":336.9292,"arg_perigee_deg":52.616,"mean_anomaly_deg":307.5537,"bstar":0.00042069,"rev_number":4503,"period_min":94.431827550779,"perigee_km":487.59209158088,"apogee_km":494.52173440031,"semimajor_km":6869.1939129906,"source":"CELESTRAK","updated_at":"2026-09-21T09:00:16.124742Z"}}